Starlink 11675

operational
NORAD ID: 64235 Int'l Des: 2025-119 Owner: SPXS Country: US Constellation: starlink
LEOCIRCULAR

Über Starlink 11675

Beschreibung wird geladen...

Live-Position

3D-Globus wird geladen...

Nächste Überflüge

Höhenverlauf

Altitude vs Time

uPlot chart will show altitude changes over time

Zweizeiliger Elementsatz

1 64235U 25119C 25260.04166194 .00195124 00000-0 14864-2 0 9991
2 64235 42.9993 175.8758 0001256 258.3720 101.7007 15.70876642 17932
Epoch: 17. Sept. 2025 • Age: 49 hours

Aktueller Status

Höhe 356.1 km
Geschwindigkeit 7.70 km/s
Subsatellitenpunkt 34.72°N, 177.91°W
Startdatum 3. Juni 2025
Alter 0.2 years
Typ internet

Technische Details

Klassifizierung Payload
Masse 960.00 kg
Trockenmasse 910.00 kg
Gesamtmasse 960.00 kg
Länge 0.30 m
Durchmesser 4.10 m
Spannweite 29.00 m
Form Box + pan
Hersteller SPXS
Bus-Typ Starlink V2MD
Phasenstatus In Orbit
Besitzer/Staat SPXS/US

Große Konstellationen

Loading constellations...